FW7685 Weather Reports


time (UTC)temp
C
wind
direction
speed
KPH
gust
KPH
rain 1hr
cm
rain 24hr
cm
rain mn
cm
humidity
%
barometer
mb
20260507214003 10 89 0.0 1.6 0.00 0.00 0.00 53 1015.6
20260507213504 11 45 0.0 1.6 0.00 0.00 0.00 53 1015.7
20260507213003 11 45 0.0 1.6 0.00 0.00 0.00 53 1015.6
20260507212503 11 135 0.0 1.6 0.00 0.00 0.00 52 1015.6
20260507212002 11 45 0.0 1.6 0.00 0.00 0.00 52 1015.6
20260507211503 11 28 0.0 1.6 0.00 0.00 0.00 52 1015.6
20260507211003 11 89 0.0 1.6 0.00 0.00 0.00 52 1015.5
20260507210500 11 89 0.0 1.6 0.00 0.00 0.00 52 1015.5
20260507210002 11 45 0.0 1.6 0.00 0.00 0.00 51 1015.6
20260507205501 11 45 0.0 1.6 0.00 0.00 0.00 51 1015.6
20260507205358 11 45 0.0 1.6 0.00 0.00 0.00 51 1015.5
20260507204501 11 45 0.0 1.6 0.00 0.00 0.00 51 1015.4
20260507204002 11 89 0.0 1.6 0.00 0.00 0.00 50 1015.3
20260507203856 11 45 0.0 1.6 0.00 0.00 0.00 50 1015.3
20260507203001 12 45 0.0 1.6 0.00 0.00 0.00 50 1015.3
20260507202846 12 45 0.0 1.6 0.00 0.00 0.00 50 1015.3
20260507202000 12 45 0.0 1.6 0.00 0.00 0.00 50 1015.2
20260507201858 12 314 0.0 1.6 0.00 0.00 0.00 50 1015.1
20260507201000 12 1 0.0 1.6 0.00 0.00 0.00 49 1015.0
20260507200502 12 135 0.0 0.0 0.00 0.00 0.00 49 1014.9
20260507200002 12 45 0.0 1.6 0.00 0.00 0.00 49 1014.8
20260507195502 12 45 0.0 1.6 0.00 0.00 0.00 49 1014.8
20260507195001 12 269 0.0 1.6 0.00 0.00 0.00 48 1014.9
20260507194905 12 45 0.0 1.6 0.00 0.00 0.00 48 1014.7
20260507194348 12 1 0.0 1.6 0.00 0.00 0.00 48 1014.6
20260507193457 13 1 0.0 1.6 0.00 0.00 0.00 48 1014.6
20260507192958 13 1 0.0 1.6 0.00 0.00 0.00 48 1014.5
20260507192500 13 89 0.0 3.2 0.00 0.00 0.00 48 1014.5
20260507191959 13 89 1.6 3.2 0.00 0.00 0.00 48 1014.5
20260507191458 13 341 0.0 4.8 0.00 0.00 0.00 48 1014.4
20260507190959 13 109 1.6 6.4 0.00 0.00 0.00 47 1014.4
20260507190457 13 61 3.2 6.4 0.00 0.00 0.00 47 1014.4
20260507185956 13 79 1.6 3.2 0.00 0.00 0.00 47 1014.4
20260507185458 13 63 1.6 4.8 0.00 0.00 0.00 47 1014.4
20260507184959 13 76 0.0 4.8 0.00 0.00 0.00 47 1014.4
20260507184458 13 1 1.6 3.2 0.00 0.00 0.00 47 1014.4
20260507183956 13 56 1.6 3.2 0.00 0.00 0.00 47 1014.4
20260507183458 13 117 0.0 3.2 0.00 0.00 0.00 47 1014.4
20260507182957 13 28 1.6 4.8 0.00 0.00 0.00 47 1014.3
20260507182857 13 56 1.6 4.8 0.00 0.00 0.00 46 1014.3
20260507182350 14 89 1.6 3.2 0.00 0.00 0.00 46 1014.3
20260507181458 14 135 0.0 3.2 0.00 0.00 0.00 46 1014.3
20260507181353 14 296 0.0 3.2 0.00 0.00 0.00 46 1014.3
20260507180455 14 178 1.6 3.2 0.00 0.00 0.00 46 1014.3
20260507175957 14 28 1.6 6.4 0.00 0.00 0.00 46 1014.2
20260507175457 14 45 1.6 6.4 0.00 0.00 0.00 46 1014.2
20260507174958 14 89 1.6 6.4 0.00 0.00 0.00 46 1014.1
20260507174457 15 35 1.6 6.4 0.00 0.00 0.00 46 1014.1
20260507174348 15 135 0.0 4.8 0.00 0.00 0.00 45 1014.1
20260507173457 15 269 0.0 4.8 0.00 0.00 0.00 45 1014.2
20260507172956 15 63 1.6 4.8 0.00 0.00 0.00 45 1014.1
20260507172455 15 234 1.6 4.8 0.00 0.00 0.00 45 1014.2
20260507171956 15 45 1.6 3.2 0.00 0.00 0.00 45 1014.2
20260507171457 15 314 0.0 6.4 0.00 0.00 0.00 44 1014.1
20260507170957 15 59 3.2 6.4 0.00 0.00 0.00 45 1014.1
20260507170457 15 72 3.2 6.4 0.00 0.00 0.00 44 1014.0
20260507165955 15 314 1.6 6.4 0.00 0.00 0.00 44 1014.0
20260507165457 15 56 1.6 4.8 0.00 0.00 0.00 44 1014.0
20260507164954 15 45 1.6 6.4 0.00 0.00 0.00 43 1014.0
20260507164454 15 45 3.2 6.4 0.00 0.00 0.00 42 1014.0
20260507164125 16 72 3.2 4.8 0.00 0.00 0.00 42 1014.0
20260507162956 16 314 1.6 4.8 0.00 0.00 0.00 41 1014.2
20260507162453 16 241 1.6 3.2 0.00 0.00 0.00 42 1014.1
20260507161957 16 45 1.6 4.8 0.00 0.00 0.00 41 1014.1
20260507161856 16 68 1.6 6.4 0.00 0.00 0.00 42 1014.1
20260507160955 16 80 1.6 6.4 0.00 0.00 0.00 42 1014.2
20260507160453 16 269 0.0 4.8 0.00 0.00 0.00 42 1014.2
20260507155954 16 341 1.6 6.4 0.00 0.00 0.00 42 1014.3
20260507155453 16 68 1.6 6.4 0.00 0.00 0.00 42 1014.2
20260507154954 16 257 1.6 6.4 0.00 0.00 0.00 41 1014.3
20260507154455 16 178 0.0 6.4 0.00 0.00 0.00 42 1014.2
20260507153954 16 63 1.6 4.8 0.00 0.00 0.00 43 1014.3
20260507153453 16 45 1.6 6.4 0.00 0.00 0.00 43 1014.3
20260507152954 16 241 1.6 6.4 0.00 0.00 0.00 43 1014.4
20260507152454 16 45 1.6 4.8 0.00 0.00 0.00 44 1014.3
20260507151954 16 135 1.6 4.8 0.00 0.00 0.00 44 1014.4
20260507151455 15 56 3.2 8.0 0.00 0.00 0.00 44 1014.4
20260507150954 15 178 1.6 8.0 0.00 0.00 0.00 45 1014.4
20260507150849 16 337 1.6 4.8 0.00 0.00 0.00 45 1014.3
20260507145954 16 89 1.6 6.4 0.00 0.00 0.00 45 1014.4
20260507145454 16 45 3.2 6.4 0.00 0.00 0.00 45 1014.3
20260507144949 16 89 1.6 8.0 0.00 0.00 0.00 44 1014.3
20260507144452 16 269 1.6 8.0 0.00 0.00 0.00 44 1014.4
20260507143949 16 135 1.6 8.0 0.00 0.00 0.00 43 1014.3
20260507143447 16 89 1.6 6.4 0.00 0.00 0.00 42 1014.4
20260507142946 16 269 1.6 4.8 0.00 0.00 0.00 40 1014.5
20260507142448 16 223 1.6 4.8 0.00 0.00 0.00 41 1014.5
20260507142340 16 314 1.6 4.8 0.00 0.00 0.00 39 1014.5
20260507141443 16 269 1.6 3.2 0.00 0.00 0.00 39 1014.5
20260507140943 16 63 1.6 3.2 0.00 0.00 0.00 35 1014.4
20260507140442 16 89 0.0 4.8 0.00 0.00 0.00 34 1014.4
20260507135937 16 234 3.2 4.8 0.00 0.00 0.00 34 1014.4
20260507135437 16 234 1.6 4.8 0.00 0.00 0.00 32 1014.5
20260507134936 16 213 1.6 6.4 0.00 0.00 0.00 34 1014.5
20260507134835 16 165 1.6 6.4 0.00 0.00 0.00 33 1014.5
20260507133934 16 327 1.6 4.8 0.00 0.00 0.00 34 1014.5
20260507133436 16 20 1.6 4.8 0.00 0.00 0.00 34 1014.5
20260507132933 16 321 0.0 4.8 0.00 0.00 0.00 34 1014.6
20260507132435 16 72 1.6 4.8 0.00 0.00 0.00 34 1014.6
20260507131933 16 63 0.0 6.4 0.00 0.00 0.00 33 1014.6
20260507131433 16 269 0.0 8.0 0.00 0.00 0.00 34 1014.6
20260507130933 16 89 1.6 8.0 0.00 0.00 0.00 34 1014.7
20260507130436 16 72 1.6 8.0 0.00 0.00 0.00 34 1014.6
20260507125934 16 306 3.2 8.0 0.00 0.00 0.00 33 1014.7
20260507125433 16 73 3.2 9.7 0.00 0.00 0.00 34 1014.6
20260507124934 16 269 4.8 9.7 0.00 0.00 0.00 34 1014.6
20260507124836 16 32 1.6 9.7 0.00 0.00 0.00 36 1014.6
20260507123934 15 56 4.8 9.7 0.00 0.00 0.00 37 1014.7
20260507123434 15 41 4.8 9.7 0.00 0.00 0.00 39 1014.7
20260507122933 15 49 3.2 8.0 0.00 0.00 0.00 37 1014.7
20260507122435 15 65 1.6 9.7 0.00 0.00 0.00 38 1014.8
20260507122331 15 66 3.2 9.7 0.00 0.00 0.00 38 1014.8
20260507121433 15 45 3.2 6.4 0.00 0.00 0.00 36 1014.8
20260507120931 15 1 1.6 4.8 0.00 0.00 0.00 34 1014.7
20260507120435 15 89 1.6 6.4 0.00 0.00 0.00 34 1014.8
20260507115931 14 252 3.2 6.4 0.00 0.00 0.00 33 1014.8
20260507115432 14 135 0.0 4.8 0.00 0.00 0.00 32 1014.8
20260507115326 14 89 1.6 6.4 0.00 0.00 0.00 34 1014.8
20260507114434 15 1 1.6 6.4 0.00 0.00 0.00 33 1014.8
20260507113931 15 45 1.6 4.8 0.00 0.00 0.00 38 1014.8
20260507113433 14 1 1.6 3.2 0.00 0.00 0.00 39 1014.8
20260507112932 14 1 1.6 3.2 0.00 0.00 0.00 39 1014.8
20260507112435 14 135 1.6 3.2 0.00 0.00 0.00 38 1014.8
20260507111933 14 28 0.0 4.8 0.00 0.00 0.00 39 1014.9
20260507111436 14 28 1.6 9.7 0.00 0.00 0.00 42 1014.8
20260507110931 13 35 3.2 9.7 0.00 0.00 0.00 42 1014.9
20260507110436 13 58 3.2 6.4 0.00 0.00 0.00 44 1015.0
20260507105931 13 45 0.0 3.2 0.00 0.00 0.00 42 1015.0
20260507105432 13 1 0.0 3.2 0.00 0.00 0.00 43 1015.0
20260507104933 13 331 1.6 3.2 0.00 0.00 0.00 42 1015.0
20260507104436 13 1 1.6 6.4 0.00 0.00 0.00 41 1015.0
20260507103932 13 135 1.6 6.4 0.00 0.00 0.00 42 1015.0
20260507103434 13 337 1.6 4.8 0.00 0.00 0.00 41 1015.0
20260507103328 13 330 1.6 4.8 0.00 0.00 0.00 40 1015.0
20260507102433 13 337 1.6 4.8 0.00 0.00 0.00 41 1015.0
20260507101933 13 269 1.6 4.8 0.00 0.00 0.00 41 1015.1
20260507101833 13 276 1.6 4.8 0.00 0.00 0.00 40 1015.2
20260507101328 13 89 0.0 4.8 0.00 0.00 0.00 40 1015.2
20260507100434 13 314 1.6 4.8 0.00 0.00 0.00 40 1015.2
20260507095932 13 321 1.6 4.8 0.00 0.00 0.00 40 1015.2
20260507095835 13 241 1.6 4.8 0.00 0.00 0.00 41 1015.2
20260507094931 13 219 1.6 4.8 0.00 0.00 0.00 41 1015.2
20260507094434 13 314 1.6 8.0 0.00 0.00 0.00 40 1015.2
20260507094323 13 314 1.6 8.0 0.00 0.00 0.00 42 1015.2
20260507093433 13 45 3.2 6.4 0.00 0.00 0.00 44 1015.1
20260507092931 13 178 1.6 6.4 0.00 0.00 0.00 44 1015.1
20260507092433 13 72 1.6 6.4 0.00 0.00 0.00 44 1015.1
20260507091930 13 314 1.6 6.4 0.00 0.00 0.00 44 1015.3
20260507091434 13 45 1.6 6.4 0.00 0.00 0.00 46 1015.1
20260507090931 13 314 1.6 6.4 0.00 0.00 0.00 47 1015.2
20260507090435 13 79 3.2 6.4 0.00 0.00 0.00 47 1015.2
20260507085933 13 63 3.2 6.4 0.00 0.00 0.00 48 1015.1
20260507085434 13 283 1.6 4.8 0.00 0.00 0.00 49 1015.2
20260507084932 13 117 0.0 4.8 0.00 0.00 0.00 50 1015.2
20260507084434 13 41 1.6 4.8 0.00 0.00 0.00 50 1015.3
20260507084333 12 72 1.6 6.4 0.00 0.00 0.00 51 1015.2
20260507083433 12 45 1.6 6.4 0.00 0.00 0.00 52 1015.3
20260507082931 12 135 3.2 6.4 0.00 0.00 0.00 52 1015.2
20260507082844 12 72 3.2 8.0 0.00 0.00 0.00 53 1015.2
20260507081932 11 39 3.2 8.0 0.00 0.00 0.00 53 1015.3
20260507081434 11 89 1.6 4.8 0.00 0.00 0.00 54 1015.3
20260507080932 11 178 1.6 6.4 0.00 0.00 0.00 55 1015.2
20260507080434 10 117 1.6 6.4 0.00 0.00 0.00 57 1015.2
20260507075933 10 35 1.6 4.8 0.00 0.00 0.00 59 1015.2
20260507075435 10 135 1.6 4.8 0.00 0.00 0.00 60 1015.2
20260507074933 10 79 1.6 3.2 0.00 0.00 0.00 61 1015.2
20260507074433 9 254 1.6 4.8 0.00 0.00 0.00 62 1015.2
20260507073931 9 78 3.2 4.8 0.00 0.00 0.00 63 1015.1
20260507073550 8 1 3.2 6.4 0.00 0.00 0.00 64 1015.2
20260507072418 8 16 1.6 4.8 0.00 0.00 0.00 64 1015.1
20260507071916 7 89 1.6 3.2 0.00 0.00 0.00 64 1015.1
20260507071416 7 89 1.6 4.8 0.00 0.00 0.00 64 1015.0
20260507070917 7 79 1.6 4.8 0.00 0.00 0.00 64 1015.0
20260507070414 7 76 1.6 4.8 0.00 0.00 0.00 64 1015.0
20260507065913 7 56 1.6 4.8 0.00 0.00 0.00 63 1015.0
20260507065413 6 104 1.6 4.8 0.00 0.00 0.00 63 1015.0
20260507064906 6 56 1.6 4.8 0.00 0.00 0.00 63 1015.1
20260507064408 6 314 1.6 4.8 0.00 0.00 0.00 63 1015.0
20260507063906 6 324 1.6 4.8 0.00 0.00 0.00 63 1015.0
20260507063406 6 314 1.6 4.8 0.00 0.00 0.00 63 1015.0
20260507062906 6 314 3.2 4.8 0.00 0.00 0.00 63 1015.0
20260507062404 6 314 1.6 3.2 0.00 0.00 0.00 63 1014.9
20260507061902 6 296 1.6 3.2 0.00 0.00 0.00 63 1014.9
20260507061405 6 314 1.6 3.2 0.00 0.00 0.00 63 1014.8
20260507060902 6 306 1.6 3.2 0.00 0.00 0.00 63 1014.9
20260507060407 6 324 1.6 3.2 0.00 0.00 0.00 63 1014.8
20260507055903 6 314 0.0 3.2 0.00 0.00 0.00 63 1014.9
20260507055407 6 306 1.6 3.2 0.00 0.00 0.00 63 1014.7
20260507054905 6 1 1.6 3.2 0.00 0.00 0.00 63 1014.7
20260507054405 6 45 1.6 3.2 0.00 0.00 0.00 63 1014.7
20260507053903 6 45 1.6 3.2 0.00 0.00 0.00 63 1014.6
20260507053406 5 1 0.0 1.6 0.00 0.00 0.00 62 1014.6
20260507052904 5 223 0.0 1.6 0.00 0.00 0.00 62 1014.6
20260507052405 5 1 0.0 1.6 0.00 0.00 0.00 61 1014.5
20260507051904 5 314 0.0 1.6 0.00 0.00 0.00 61 1014.5
20260507051406 5 45 0.0 1.6 0.00 0.00 0.00 61 1014.5
20260507050905 5 324 0.0 1.6 0.00 0.00 0.00 61 1014.5
20260507050759 5 321 0.0 1.6 0.00 0.00 0.00 61 1014.5
20260507045904 5 1 0.0 1.6 0.00 0.00 0.00 61 1014.5
20260507045407 5 178 0.0 1.6 0.00 0.00 0.00 61 1014.5
20260507044906 5 269 0.0 1.6 0.00 0.00 0.00 61 1014.5
20260507044406 5 45 0.0 1.6 0.00 0.00 0.00 61 1014.5
20260507043904 5 45 0.0 1.6 0.00 0.00 0.00 61 1014.4
20260507043404 5 1 0.0 1.6 0.00 0.00 0.00 61 1014.4
20260507043256 6 331 0.0 3.2 0.00 0.00 0.00 61 1014.3
20260507042405 6 1 1.6 3.2 0.00 0.00 0.00 61 1014.3
20260507041904 6 314 0.0 1.6 0.00 0.00 0.00 61 1014.3
20260507041405 6 296 0.0 1.6 0.00 0.00 0.00 61 1014.4
20260507040903 6 331 0.0 1.6 0.00 0.00 0.00 61 1014.4
20260507040406 6 314 0.0 1.6 0.00 0.00 0.00 61 1014.4
20260507040037 6 331 0.0 1.6 0.00 0.00 0.00 61 1014.4
20260507034903 6 89 0.0 3.2 0.00 0.00 0.00 61 1014.4
20260507034404 6 1 0.0 3.2 0.00 0.00 0.00 61 1014.4
20260507033903 6 45 0.0 1.6 0.00 0.00 0.00 61 1014.3
20260507033404 6 1 0.0 1.6 0.00 0.00 0.00 61 1014.3
20260507032905 6 314 0.0 1.6 0.00 0.00 0.00 61 1014.3
20260507032404 6 331 1.6 3.2 0.00 0.00 0.00 61 1014.3
20260507031904 6 314 1.6 3.2 0.00 0.00 0.00 60 1014.3
20260507031405 6 296 1.6 3.2 0.00 0.00 0.00 60 1014.3
20260507031301 6 314 1.6 3.2 0.00 0.00 0.00 60 1014.3
20260507030404 6 314 1.6 3.2 0.00 0.00 0.00 60 1014.3
20260507025903 6 314 0.0 3.2 0.00 0.00 0.00 60 1014.3
20260507025404 6 314 1.6 3.2 0.00 0.00 0.00 60 1014.3
20260507024904 6 314 0.0 3.2 0.00 0.00 0.00 60 1014.3
20260507024405 6 310 1.6 3.2 0.00 0.00 0.00 60 1014.3
20260507024256 6 303 0.0 3.2 0.00 0.00 0.00 60 1014.2
20260507023405 6 269 1.6 3.2 0.00 0.00 0.00 60 1014.3
20260507022904 6 269 0.0 3.2 0.00 0.00 0.00 60 1014.3
20260507022406 6 306 1.6 3.2 0.00 0.00 0.00 60 1014.2
20260507022300 6 303 1.6 3.2 0.00 0.00 0.00 60 1014.3
20260507021405 7 314 0.0 3.2 0.00 0.00 0.00 59 1014.3
20260507020902 7 45 0.0 3.2 0.00 0.00 0.00 60 1014.2
20260507020804 7 314 1.6 3.2 0.00 0.00 0.00 60 1014.2
20260507015903 7 314 0.0 3.2 0.00 0.00 0.00 59 1014.1
20260507015404 7 331 1.6 3.2 0.00 0.00 0.00 59 1014.1
20260507014903 7 269 0.0 3.2 0.00 0.00 0.00 59 1014.0
20260507014404 7 341 0.0 3.2 0.00 0.00 0.00 59 1014.1
20260507014258 7 1 1.6 3.2 0.00 0.00 0.00 59 1014.2
20260507013405 7 314 1.6 3.2 0.00 0.00 0.00 59 1014.1
20260507012903 7 45 0.0 3.2 0.00 0.00 0.00 59 1014.0
20260507012404 7 331 1.6 3.2 0.00 0.00 0.00 59 1014.1
20260507011901 7 1 1.6 3.2 0.00 0.00 0.00 59 1014.1
20260507011402 7 286 1.6 3.2 0.00 0.00 0.00 59 1014.2
20260507011254 7 331 1.6 3.2 0.00 0.00 0.00 58 1014.2
20260507010401 7 314 1.6 1.6 0.00 0.00 0.00 58 1014.2
20260507005900 7 241 0.0 3.2 0.00 0.00 0.00 58 1014.1
20260507005800 7 324 0.0 3.2 0.00 0.00 0.00 58 1014.1
20260507004858 8 269 0.0 3.2 0.00 0.00 0.00 58 1014.1
20260507004358 8 314 1.6 3.2 0.00 0.00 0.00 58 1014.1
20260507003858 8 331 0.0 3.2 0.00 0.00 0.00 58 1014.1
20260507003359 8 314 0.0 3.2 0.00 0.00 0.00 57 1014.1
20260507002858 8 314 0.0 3.2 0.00 0.00 0.00 57 1014.2
20260507002355 8 296 0.0 3.2 0.00 0.00 0.00 57 1014.2
20260507001854 8 269 0.0 1.6 0.00 0.00 0.00 57 1014.2
20260507001754 8 1 0.0 3.2 0.00 0.00 0.00 57 1014.2
20260507001249 8 314 1.6 3.2 0.00 0.00 0.00 57 1014.2
20260507000825 8 45 1.6 4.8 0.00 0.00 0.00 57 1014.2
20260506235853 8 269 1.6 4.8 0.00 0.00 0.00 57 1014.2
20260506235353 8 314 1.6 3.2 0.00 0.00 0.00 57 1014.2
20260506235248 8 296 1.6 3.2 0.00 0.00 0.00 57 1014.2
20260506234349 8 296 1.6 4.8 0.00 0.00 0.00 56 1014.0
20260506233850 8 314 0.0 4.8 0.00 0.00 0.00 56 1014.0
20260506233349 8 45 1.6 4.8 0.00 0.00 0.00 56 1013.9
20260506233238 9 321 1.6 3.2 0.00 0.00 0.00 56 1014.0
20260506232347 9 324 1.6 4.8 0.00 0.00 0.00 56 1013.9
20260506231847 9 314 1.6 4.8 0.00 0.00 0.00 55 1013.9
20260506231348 9 45 1.6 3.2 0.00 0.00 0.00 55 1013.9
20260506230846 9 1 1.6 3.2 0.00 0.00 0.00 54 1013.9
20260506230348 10 314 0.0 3.2 0.00 0.00 0.00 54 1013.9
20260506225846 10 306 0.0 1.6 0.00 0.00 0.00 54 1013.9
20260506225747 10 303 0.0 3.2 0.00 0.00 0.00 54 1014.0
20260506224847 10 45 0.0 3.2 0.00 0.00 0.00 54 1014.0
20260506224347 10 178 0.0 3.2 0.00 0.00 0.00 53 1014.0
20260506223845 10 178 0.0 3.2 0.00 0.00 0.00 53 1014.0
20260506223744 10 331 0.0 3.2 0.00 0.00 0.00 53 1014.0
20260506222845 10 1 1.6 3.2 0.00 0.00 0.00 53 1013.9
20260506222347 10 35 1.6 3.2 0.00 0.00 0.00 53 1013.9
20260506221845 10 324 1.6 4.8 0.00 0.00 0.00 52 1013.8
20260506221346 10 1 1.6 4.8 0.00 0.00 0.00 52 1013.8
20260506220844 10 28 1.6 4.8 0.00 0.00 0.00 52 1013.8
20260506220346 10 39 1.6 6.4 0.00 0.00 0.00 52 1013.8
20260506220242 10 296 1.6 6.4 0.00 0.00 0.00 51 1013.7
20260506215347 10 38 1.6 4.8 0.00 0.00 0.00 51 1013.7
20260506214845 11 331 1.6 3.2 0.00 0.00 0.00 50 1013.7
20260506214345 11 314 1.6 3.2 0.00 0.00 0.00 50 1013.7